Wind_Speed
55 56 56 56 56 56 56 56 56 56 56 57 58 59 59 59 60 61 61 62 64 65 66 67 68 69 70 72 73 74 75 76 77 78 78 78 79 80 81 82 83 84 85 86 88 90 90 90 90 90 89 87 87 88 90 92 95 97 98 100 101 103 103 104 104 105 106 106 107 108 109 110 112 113 115 116 118 119 120 121 122 123 124 124 125
57 58 57 57 57 58 59 59 60 59 59 60 61 61 61 62 63 63 64 65 66 66 68 69 70 71 73 74 75 76 77 78 79 80 80 81 81 83 84 84 85 86 88 89 91 91 91 90 90 89 88 87 87 89 91 94 96 98 100 102 104 105 106 106 106 107 108 109 109 110 111 113 115 117 118 119 120 121 121 123 123 124 124 125 126
59 59 59 59 59 59 60 61 62 62 62 62 63 64 64 65 65 66 66 67 68 69 70 70 71 73 74 76 77 78 79 80 81 82 83 83 84 85 86 87 87 89 91 92 92 91 91 90 89 89 88 88 90 91 94 97 99 101 103 105 106 107 108 108 109 110 111 111 112 113 114 115 117 119 121 122 123 124 124 124 124 124 125 126 126
61 61 61 61 62 62 62 63 64 64 64 65 65 66 66 67 67 68 68 69 70 71 71 72 73 74 76 77 78 79 81 82 84 85 85 85 87 88 88 89 90 92 93 93 93 92 91 90 90 89 90 91 93 95 98 100 102 104 105 107 108 109 109 110 111 112 113 114 115 115 116 117 119 121 123 125 126 126 126 126 126 126 126 125 124
63 63 63 64 65 66 65 66 66 66 66 67 67 68 68 69 69 69 70 70 71 72 73 74 75 76 77 79 80 81 83 85 86 87 87 88 89 91 91 92 93 94 95 95 95 94 92 91 91 90 92 94 96 98 101 104 105 106 108 109 109 110 110 111 113 114 115 116 117 118 119 120 122 123 125 126 126 127 127 127 127 126 125 123 122
66 66 66 67 68 69 69 68 68 68 68 68 70 71 70 71 71 72 72 72 73 74 75 76 77 78 79 80 81 83 85 87 88 88 89 91 92 93 93 94 95 96 97 97 96 94 93 92 92 92 94 96 98 101 104 106 108 109 110 110 111 111 112 113 114 116 118 118 118 119 120 122 122 123 125 127 128 128 128 127 126 124 123 122 121
70 69 69 70 71 71 71 70 69 70 70 70 72 73 73 73 73 74 74 75 76 76 77 78 79 80 80 82 83 85 87 89 89 90 92 93 94 95 95 96 97 98 98 98 97 96 94 93 93 94 96 98 101 104 106 108 109 110 111 111 111 112 113 115 116 117 118 119 119 120 122 122 123 124 126 127 127 127 127 126 124 124 123 122 120
73 72 73 73 74 74 73 72 72 72 73 73 74 74 75 75 76 76 77 77 78 79 79 80 81 82 83 84 85 87 89 90 91 93 94 95 95 96 97 98 99 100 100 99 98 97 96 96 96 97 99 100 103 105 107 108 110 110 111 111 112 113 114 115 117 118 119 120 121 122 123 123 124 125 126 126 126 126 127 126 124 123 122 120 118
75 74 75 75 76 76 76 76 76 76 76 76 76 76 77 77 78 78 79 79 80 81 81 82 83 84 85 86 87 89 91 92 94 95 96 96 96 97 99 101 101 101 101 100 99 99 99 99 99 100 101 102 104 106 107 109 110 110 111 112 113 114 115 116 118 119 121 121 122 124 124 124 124 125 125 125 126 127 127 125 123 121 120 118 117
77 76 76 77 78 78 79 79 79 79 78 78 78 78 78 79 79 80 80 81 81 82 83 83 84 86 87 88 89 91 93 95 96 96 96 96 98 100 101 102 103 102 101 101 100 101 101 101 101 101 102 103 104 106 108 109 110 111 112 113 114 115 116 118 120 121 122 123 123 124 124 123 124 125 125 127 128 126 124 123 121 120 119 118 117
81 80 79 80 80 81 82 82 82 82 81 80 80 80 80 80 81 81 82 82 82 83 83 85 86 87 88 89 91 94 96 97 97 96 96 98 100 102 103 103 103 102 102 102 102 102 102 102 102 102 102 104 105 107 108 109 110 112 113 113 114 116 117 119 120 121 122 123 123 123 123 123 124 126 126 127 126 124 122 121 121 120 120 119 118
84 84 83 83 83 83 84 84 84 84 83 83 82 82 82 83 83 83 83 83 83 84 85 86 88 89 90 92 94 96 97 97 96 96 98 100 102 102 103 103 103 102 103 103 103 103 103 103 103 103 104 105 106 108 109 110 111 112 113 114 115 116 118 119 120 121 122 123 122 122 123 125 125 125 125 125 124 122 122 122 121 121 121 120 120
86 86 86 86 85 85 85 85 85 85 86 86 85 85 85 86 86 85 85 85 85 85 86 88 89 91 93 94 96 98 98 97 97 99 100 101 101 101 102 102 103 104 105 105 105 104 104 104 104 105 106 107 108 109 110 111 112 113 113 114 115 117 118 119 121 122 123 123 123 123 124 125 124 123 123 124 123 122 122 122 122 123 122 121 121
87 88 88 88 87 87 87 86 86 86 87 87 87 87 87 87 87 87 87 87 87 87 88 90 92 93 95 96 97 98 98 98 99 100 101 101 101 102 103 104 105 105 106 106 105 105 105 105 106 106 107 108 110 111 112 113 113 114 114 115 116 117 118 119 121 123 124 124 124 123 123 124 123 122 122 124 124 124 124 124 124 124 124 122 121
88 88 89 89 89 88 88 88 88 88 88 88 88 88 88 89 89 89 88 88 89 90 92 93 95 96 97 97 98 98 99 100 100 101 101 102 102 103 104 105 106 106 106 105 105 105 105 106 107 108 109 111 112 113 114 115 115 115 115 116 117 117 118 121 123 124 124 124 124 124 123 123 123 123 123 124 126 126 126 126 125 126 125 124 122
88 89 89 90 90 90 90 90 89 89 89 89 89 89 89 89 90 90 91 91 92 94 95 96 96 97 97 98 99 101 102 102 102 101 102 103 104 104 105 106 106 106 105 105 105 106 107 108 109 110 111 113 114 115 116 116 116 117 117 117 118 118 120 122 124 124 124 124 124 124 123 123 123 124 125 126 128 128 128 127 126 127 126 124 122
90 89 88 88 89 89 90 90 90 89 90 90 90 90 91 91 92 93 94 94 95 96 97 97 97 98 99 101 102 103 103 104 103 103 103 104 104 104 105 105 105 105 105 106 106 107 108 109 111 112 113 114 116 117 117 118 118 118 118 119 119 120 121 123 124 124 125 125 124 124 123 123 124 125 126 128 128 129 128 127 127 127 126 124 123
91 90 89 88 89 89 90 90 91 91 91 92 92 93 93 94 95 95 96 96 97 97 98 98 100 100 101 102 102 103 103 103 103 103 103 103 103 103 103 104 105 105 106 107 108 109 110 112 113 114 115 116 117 118 119 119 119 119 120 120 120 122 123 124 125 126 126 126 125 125 125 126 127 127 128 129 129 130 130 129 129 129 128 126 125
90 90 90 90 90 91 91 91 91 92 93 94 94 95 95 96 96 97 97 98 98 99 99 100 100 101 101 101 101 102 102 102 102 102 102 102 102 103 103 104 104 106 107 108 110 111 112 114 115 116 117 117 118 119 120 120 120 120 121 121 122 123 124 126 126 126 127 126 126 126 127 127 128 128 129 129 130 131 131 131 131 131 130 129 128
87 88 88 89 90 90 90 91 91 92 93 94 95 95 95 95 96 96 97 98 98 98 99 99 100 100 100 100 99 100 100 100 100 101 102 103 103 104 105 105 106 107 109 110 112 113 115 115 116 117 118 118 118 119 120 120 121 121 122 123 124 125 126 127 128 128 128 127 127 127 127 128 128 128 128 128 129 130 131 132 132 132 131 130 128
82 84 85 86 87 88 89 89 90 91 91 92 92 93 93 93 94 95 96 97 97 97 98 98 98 98 98 98 98 98 99 100 101 102 104 105 105 106 107 108 109 110 112 113 114 116 116 117 117 118 118 118 118 119 120 121 122 123 124 125 126 127 128 129 129 129 129 128 127 127 128 128 127 127 127 128 129 130 131 131 132 131 130 128 126
80 81 82 82 83 84 85 87 87 88 89 89 89 90 91 92 93 94 94 95 96 96 96 96 96 97 97 98 99 100 102 103 104 105 106 107 108 109 110 111 112 113 115 116 116 117 117 117 117 117 118 118 119 120 121 122 124 125 126 127 128 129 130 130 130 130 129 128 128 128 128 128 127 127 127 128 129 129 130 130 130 129 128 126 124
83 83 82 82 83 84 85 86 87 88 88 89 89 90 91 92 92 93 94 94 95 95 95 96 96 98 99 101 103 104 105 106 107 108 109 109 110 111 112 114 115 115 116 117 117 117 117 117 117 117 118 119 120 122 123 125 126 127 129 130 130 131 131 131 130 130 129 129 129 128 128 128 127 127 127 128 128 128 128 127 126 126 124 123 121
92 91 90 89 89 89 89 90 90 90 91 91 92 93 93 93 94 94 95 95 96 97 98 99 101 103 104 106 106 107 108 109 110 110 111 112 113 114 115 115 116 116 117 117 116 116 116 116 117 119 120 121 123 124 126 127 129 130 131 131 131 131 131 131 130 130 130 130 130 129 129 128 128 128 128 128 128 127 126 125 124 122 121 119 118
102 101 101 100 99 98 97 97 96 96 97 97 98 98 98 99 99 99 100 101 102 103 104 106 107 108 109 109 109 110 110 111 112 112 113 113 114 115 115 116 116 116 115 115 115 115 116 118 119 121 122 124 125 127 128 129 130 131 131 131 131 131 131 131 131 131 131 131 130 129 129 129 129 129 128 128 127 127 125 124 122 121 120 118 116
108 108 108 108 108 107 107 106 105 105 105 105 105 106 106 106 107 108 108 109 110 111 111 112 112 112 111 111 110 111 111 112 112 113 113 113 114 114 114 114 114 114 114 115 116 117 119 121 122 124 125 126 128 129 129 130 130 130 130 131 131 131 131 131 131 131 131 130 130 129 129 129 128 128 127 126 126 125 124 123 121 119 118 116 114
111 111 111 112 112 112 112 112 112 112 112 112 112 112 112 113 113 114 114 115 116 116 116 115 114 112 111 110 110 110 111 111 112 112 112 112 112 112 113 113 114 114 115 117 119 120 122 124 125 126 127 128 128 129 129 129 129 129 129 130 130 130 130 131 131 131 130 130 130 129 128 128 127 126 125 125 124 124 122 120 119 117 115 114 112
113 113 113 114 114 115 115 115 116 116 116 116 116 116 116 117 117 118 118 118 118 117 116 114 113 111 110 110 110 110 110 111 112 111 111 111 111 111 112 114 115 117 118 120 121 123 124 126 126 127 127 127 128 128 128 128 128 128 128 129 129 129 129 129 129 130 129 129 129 128 126 125 124 124 124 124 124 123 122 120 118 116 114 113 111
114 114 114 115 115 115 116 116 117 118 118 119 119 119 119 120 120 120 120 118 117 115 113 112 111 110 110 109 110 110 111 111 111 111 111 112 113 114 115 117 118 120 121 123 124 125 126 126 126 126 126 126 126 126 126 127 127 128 128 128 128 128 128 128 128 128 128 128 127 125 124 123 123 124 124 124 124 123 121 120 118 116 114 112 111
117 117 116 116 116 116 116 117 118 119 119 120 120 121 121 120 119 117 116 114 112 111 110 110 109 109 109 109 110 110 111 111 111 112 113 114 115 117 118 119 120 121 123 124 124 125 125 124 123 123 123 123 124 125 126 126 127 127 127 127 127 127 127 127 127 127 127 126 125 123 123 123 123 123 124 123 123 122 120 119 117 115 113 111 109
120 119 119 119 118 118 118 118 119 119 119 119 118 117 116 115 113 111 109 109 108 108 108 108 109 109 109 110 110 111 112 113 114 115 115 116 117 118 119 120 121 122 123 123 123 123 122 122 121 121 122 123 124 125 126 126 126 126 126 126 126 126 126 126 126 125 124 123 122 122 122 123 123 123 123 123 121 120 119 117 115 113 111 110 107
120 120 120 120 119 118 118 117 116 115 114 113 112 111 110 108 107 106 106 106 106 107 107 108 109 110 110 111 112 113 114 115 116 116 117 118 119 119 120 121 121 122 122 122 121 121 121 121 122 122 123 124 125 125 125 125 125 125 126 125 125 125 125 125 124 123 122 121 121 122 123 123 124 124 123 122 121 119 117 115 113 111 109 107 105
119 118 117 116 115 114 113 112 111 110 109 109 108 107 106 105 105 105 105 106 106 107 108 109 110 111 113 114 115 116 117 117 118 118 119 120 121 121 121 122 122 122 121 120 120 120 121 122 123 124 125 125 125 125 125 125 125 126 125 125 125 124 123 123 122 122 121 121 121 122 123 124 124 123 122 121 120 118 116 113 111 109 107 105 103
116 115 114 113 112 111 110 109 109 108 107 107 106 106 105 105 106 106 106 107 108 109 110 111 112 114 115 116 118 119 120 120 120 121 121 122 122 122 122 122 122 121 120 120 121 121 122 123 124 124 125 125 125 125 125 125 125 125 125 124 123 123 122 121 121 121 121 121 122 123 124 124 124 122 121 120 118 116 114 111 109 107 105 102 100
114 113 113 113 112 110 109 109 108 108 107 107 107 107 107 107 108 108 108 109 110 111 112 113 115 116 118 119 120 121 121 121 122 122 122 122 122 123 122 122 122 121 122 122 122 123 123 123 124 125 125 125 125 125 125 125 124 124 124 123 123 122 121 121 121 121 122 122 123 123 124 124 123 121 119 118 116 114 111 109 107 104 102 100 97
114 113 112 112 112 111 110 109 109 108 108 107 108 108 108 109 109 110 111 112 113 113 114 116 117 118 120 121 121 122 123 123 123 123 123 123 123 122 122 122 122 122 123 123 123 124 124 124 125 125 125 125 125 125 124 124 123 123 123 122 122 122 121 121 122 122 122 123 123 123 123 122 120 119 118 116 114 111 109 106 104 102 99 97 94
114 113 113 112 111 111 110 109 109 108 108 109 109 109 109 110 111 112 114 115 115 116 117 119 120 121 122 122 123 123 124 124 124 124 123 123 123 123 122 123 123 123 123 124 124 125 125 125 125 125 125 125 124 124 124 123 123 123 122 122 122 122 122 122 122 122 122 122 122 122 121 120 118 117 115 113 111 108 106 104 101 99 96 93 91
113 112 112 112 111 111 110 109 109 109 109 109 110 111 111 112 114 115 116 118 118 119 120 121 122 123 123 124 124 124 124 124 124 124 124 124 124 124 123 124 124 124 124 124 125 125 125 125 125 124 124 124 124 124 124 123 123 123 123 123 123 123 122 122 122 121 121 121 121 120 119 117 116 114 112 110 107 105 103 101 98 96 93 90 88
112 112 112 111 111 111 111 110 110 110 111 111 112 113 114 115 116 117 119 120 121 121 122 123 123 124 124 124 124 124 124 125 125 125 125 125 125 125 124 124 124 124 125 125 125 124 124 123 123 123 124 124 124 124 124 124 124 124 124 123 123 123 122 122 121 120 120 119 118 117 116 114 112 110 108 106 104 102 100 98 95 92 90 88 86
112 112 112 112 112 112 112 112 112 113 113 114 115 115 116 117 118 119 120 121 122 122 123 124 124 125 125 125 125 125 126 126 127 127 127 126 126 125 125 125 125 125 125 124 124 123 123 123 124 124 124 124 124 124 124 124 124 124 124 124 123 122 121 121 120 119 118 117 115 114 112 111 109 106 104 102 100 98 96 94 91 89 87 85 83
112 112 112 112 112 113 113 114 114 114 115 116 117 117 118 119 120 120 121 121 122 122 123 124 124 125 125 126 126 127 127 127 127 127 127 126 126 125 125 125 125 125 124 124 124 124 124 124 125 125 125 124 124 124 124 124 124 124 124 123 122 121 120 119 118 116 115 113 111 110 108 106 105 103 101 98 96 94 92 90 88 86 84 82 81
111 112 112 113 113 114 114 115 116 116 117 117 118 119 119 120 120 121 121 122 122 123 123 124 125 126 127 127 128 128 128 127 127 126 126 126 125 125 125 125 125 125 125 125 125 126 125 125 125 125 125 125 125 125 125 124 124 123 122 121 120 119 118 116 115 113 112 110 107 105 104 102 101 99 97 95 92 90 88 87 85 83 81 79 78
111 112 113 113 114 115 115 116 117 117 118 118 119 119 120 121 121 122 122 123 123 124 125 126 127 127 128 128 128 127 127 126 126 125 125 125 125 125 125 126 126 126 126 126 126 126 126 126 126 125 125 125 124 124 123 122 122 121 120 119 118 116 114 113 111 110 108 106 104 102 99 98 97 96 94 91 88 86 85 84 83 81 79 77 75
112 113 113 114 115 115 116 117 118 119 119 120 120 121 121 122 122 122 123 123 124 125 126 127 127 127 127 127 126 125 125 125 125 125 126 126 126 126 126 127 127 126 126 126 126 126 126 126 125 125 124 124 123 122 121 120 119 118 117 116 115 113 111 109 107 106 104 102 100 98 96 94 93 92 90 88 85 83 82 81 80 78 76 74 73
112 113 113 114 115 116 117 118 119 119 120 120 121 122 122 123 123 123 123 124 124 125 125 125 125 125 125 125 125 125 125 125 126 126 126 127 126 126 126 126 126 126 126 126 126 125 125 124 124 123 122 121 120 119 118 117 116 115 114 112 111 109 107 106 103 102 100 98 96 94 92 90 89 88 86 85 83 81 79 78 77 75 74 72 71
111 112 113 114 115 116 117 118 119 120 120 121 121 122 122 122 123 123 123 123 123 123 123 124 124 124 125 125 125 126 126 126 126 126 126 125 125 125 125 124 125 125 124 124 124 123 123 122 121 120 119 118 117 116 115 113 112 111 109 108 107 106 104 102 100 98 96 95 93 91 89 87 85 85 84 82 81 79 76 75 74 73 72 71 70
111 112 113 114 115 116 117 118 118 119 119 120 120 121 121 121 121 121 121 121 121 122 123 123 124 125 125 125 126 125 125 125 125 124 124 124 124 123 123 123 123 122 122 121 121 120 120 119 118 117 115 114 113 112 111 110 108 107 105 104 103 102 101 99 98 95 94 92 90 88 86 84 83 82 82 80 78 76 74 72 71 70 70 69 68
111 112 112 113 114 115 116 116 117 117 117 118 118 119 119 119 120 120 121 121 121 122 122 123 123 123 124 124 124 124 123 123 123 123 122 122 122 122 121 121 120 120 119 119 118 117 116 115 113 112 111 111 110 109 107 106 105 103 102 100 99 98 97 96 95 93 91 89 87 85 84 82 81 80 79 77 75 74 72 70 70 69 67 66 65
110 111 112 113 113 114 115 115 115 116 117 117 118 118 119 119 120 120 120 121 121 120 120 120 120 121 121 121 121 121 121 121 121 121 121 120 120 119 119 118 118 117 116 115 114 113 111 111 110 109 108 108 107 105 104 103 101 100 98 97 96 95 94 93 92 90 88 86 85 84 82 81 79 78 77 75 73 72 71 69 68 67 65 64 63
107 108 109 110 111 112 113 113 113 114 114 115 116 116 117 117 117 117 117 117 117 117 117 117 117 118 118 118 119 119 119 119 119 119 119 119 118 118 117 116 115 114 113 111 110 109 108 108 107 106 105 105 104 103 101 100 98 97 95 94 93 92 90 89 88 87 85 84 83 82 81 79 77 76 75 73 72 71 70 68 66 64 63 62 61
105 105 106 107 108 109 110 110 111 111 111 112 112 112 113 113 113 113 113 114 114 114 114 115 115 116 116 117 117 118 118 118 118 117 117 117 116 115 114 113 112 110 109 108 108 107 106 105 104 103 102 102 101 100 98 97 95 94 92 91 90 89 87 85 85 84 83 82 82 81 79 77 76 75 74 72 71 70 68 66 64 63 62 60 59
Wind_Direction
282 282 284 285 286 287 287 288 288 288 288 287 287 287 288 289 289 289 289 289 288 288 288 288 289 290 291 292 293 294 295 296 297 297 298 298 299 299 300 301 301 300 300 300 301 302 302 300 299 298 297 295 294 294 293 293 293 293 293 294 294 295 296 297 298 298 298 298 298 298 298 298 297 297 297 297 298 298 298 299 299 299 300 300 300
281 281 282 284 286 286 287 287 287 287 287 286 286 287 287 288 288 289 289 288 288 288 288 288 289 290 291 291 292 294 295 296 296 296 297 297 297 298 299 300 300 300 300 301 302 302 301 300 298 297 295 293 293 293 293 293 293 293 293 294 295 296 297 298 298 298 298 298 298 298 298 298 298 298 298 299 299 299 299 300 300 300 301 301 301
280 281 281 282 284 285 286 286 285 286 286 286 286 286 287 287 287 287 287 288 288 288 288 289 289 289 290 291 292 293 294 295 295 295 296 296 297 297 298 299 299 299 300 301 302 302 301 299 297 295 293 292 292 292 293 293 293 293 294 294 295 297 298 298 298 298 298 299 299 299 299 299 299 299 300 300 300 300 301 301 301 301 302 302 303
279 280 280 281 283 283 284 284 284 285 285 285 285 285 285 285 285 285 286 287 287 288 288 288 288 289 289 290 291 293 293 294 294 295 295 295 296 297 298 298 299 299 300 301 302 301 300 298 296 294 291 291 291 291 292 293 293 294 295 295 296 297 298 298 299 299 299 299 299 300 300 300 300 300 300 301 301 301 302 302 302 303 303 304 305
278 279 280 281 282 283 284 284 284 284 284 284 284 284 284 283 283 283 284 285 286 287 287 288 288 288 289 290 291 292 293 293 294 294 294 295 296 297 297 298 299 299 300 301 301 301 300 298 295 293 291 290 290 291 292 293 294 295 295 296 297 298 298 299 299 299 299 299 299 300 300 300 301 301 301 302 302 303 303 303 304 305 305 306 306
278 279 280 280 281 282 283 284 285 285 284 284 283 283 283 283 283 283 284 284 285 285 286 287 287 288 289 289 290 291 292 293 294 294 294 294 295 296 297 297 298 299 300 300 301 301 300 298 295 293 292 291 292 292 293 294 295 296 296 297 298 299 299 299 299 299 299 300 301 301 301 302 302 303 303 303 303 304 304 305 306 306 306 306 306
279 280 280 281 281 282 283 283 283 283 283 282 282 282 282 282 283 283 283 284 284 284 285 286 286 287 288 289 289 291 292 293 293 293 293 294 295 296 296 297 297 298 299 300 300 299 299 297 295 294 293 293 293 293 294 295 296 297 298 299 299 299 300 300 300 301 301 302 303 303 303 304 304 304 304 304 305 305 305 306 306 307 306 307 307
281 281 281 281 281 281 282 282 282 282 282 281 281 281 281 281 282 282 283 283 283 283 284 285 286 287 287 288 289 290 291 292 292 293 293 294 295 295 295 296 297 297 298 298 299 298 298 297 296 295 294 294 294 294 295 296 297 298 299 299 299 300 300 301 302 302 303 303 303 304 304 304 305 305 305 305 306 305 305 306 307 307 307 307 308
280 281 281 280 280 280 281 281 281 281 281 281 280 280 280 280 281 281 281 282 282 282 283 284 285 286 287 288 288 289 290 291 291 292 293 293 294 294 295 296 296 297 297 298 298 297 297 297 296 295 295 295 295 295 296 296 297 298 298 299 300 301 302 303 303 303 303 303 304 304 304 305 305 305 305 305 305 305 306 307 307 307 307 307 307
279 279 278 279 279 280 280 281 281 281 281 281 280 280 279 279 279 280 280 280 281 282 282 283 284 285 286 287 287 288 289 290 291 292 292 293 293 294 295 295 296 296 297 297 297 297 297 297 296 296 295 295 295 295 296 297 297 298 299 300 301 302 303 303 303 303 303 304 304 305 305 306 306 305 305 305 305 306 307 307 307 307 306 306 307
280 279 279 278 279 279 280 281 281 281 281 281 280 280 280 279 279 280 280 280 281 282 283 283 284 285 286 286 287 288 289 290 291 291 291 292 293 294 294 295 295 296 296 296 297 297 297 297 296 295 295 295 295 295 296 297 298 299 300 301 302 303 303 303 304 304 304 304 304 305 305 306 305 305 306 306 306 307 307 307 307 306 306 307 309
280 280 279 279 279 279 279 280 281 281 281 281 280 280 280 280 280 280 280 281 281 282 282 283 284 284 285 285 286 288 289 290 290 290 291 292 293 294 294 294 295 295 295 296 296 296 296 296 295 295 294 295 295 296 296 297 298 299 301 302 303 304 304 304 304 304 304 304 304 305 306 305 306 306 307 307 307 307 307 307 307 307 308 309 310
279 279 278 278 278 278 278 279 279 280 280 280 280 280 280 280 280 281 281 281 281 281 282 282 283 283 284 285 286 288 288 289 289 291 292 293 293 293 293 293 294 294 294 295 295 296 295 295 295 295 295 296 296 297 298 298 299 300 302 303 303 304 304 304 304 303 303 303 304 306 306 306 307 307 307 307 307 307 307 307 308 309 309 309 310
276 276 277 277 277 277 277 277 278 279 279 279 279 279 279 280 280 280 280 280 280 280 280 281 282 282 283 285 286 287 287 288 289 291 292 292 292 292 292 292 292 293 294 294 295 295 295 295 295 296 296 297 297 298 298 299 300 301 302 303 303 304 304 304 303 302 303 304 305 306 307 307 307 308 308 308 308 308 308 309 309 309 309 309 309
273 273 274 274 275 275 275 276 276 277 277 277 278 278 278 278 279 279 279 278 279 279 280 281 282 282 284 285 286 286 287 288 289 290 291 291 291 291 291 291 292 292 293 294 294 294 294 295 295 296 297 298 298 298 299 300 301 302 302 303 303 303 303 303 303 303 305 306 307 307 307 307 308 308 309 309 309 309 309 309 309 309 308 308 309
271 271 271 272 272 273 273 273 274 275 275 275 276 276 276 277 277 278 278 278 279 280 281 281 282 283 284 285 286 287 287 288 289 289 289 289 290 290 290 291 291 292 292 293 293 293 294 295 296 296 297 298 298 299 300 301 302 302 303 303 303 303 304 304 304 305 306 307 307 307 307 308 309 310 310 310 310 309 309 309 308 308 308 308 308
271 271 271 271 271 271 271 272 273 273 273 274 274 274 275 276 277 277 278 278 279 280 281 281 282 283 284 285 286 287 287 288 288 288 288 288 289 289 290 290 291 291 291 292 292 293 294 295 296 297 298 299 300 300 301 302 302 302 302 302 303 304 305 305 306 307 307 307 307 307 308 309 310 310 310 310 309 308 308 308 307 307 307 307 307
271 271 270 270 270 270 271 271 272 272 272 272 273 274 275 276 276 277 278 278 279 280 281 281 282 283 284 285 286 286 287 287 288 287 287 287 288 289 289 290 290 291 291 292 293 295 296 297 298 298 299 300 300 301 301 301 301 301 302 303 304 305 306 306 307 307 307 307 308 309 310 310 310 310 309 309 308 308 308 307 307 307 307 307 308
271 271 270 270 270 270 270 271 271 271 271 272 273 274 275 275 276 277 278 278 279 280 281 282 283 283 284 285 285 286 286 286 286 286 287 287 288 289 290 290 291 292 293 294 295 297 297 298 299 299 300 300 300 300 300 300 301 302 303 304 305 305 306 306 307 307 308 308 309 309 310 310 309 309 309 308 308 308 308 308 308 308 308 308 309
272 272 271 271 271 271 271 271 271 271 272 272 273 274 275 276 277 278 278 279 280 281 281 282 283 283 284 284 284 284 285 285 286 286 287 288 289 290 291 292 293 294 295 297 298 298 299 299 300 300 300 299 299 299 300 301 302 303 304 304 305 306 306 307 307 307 307 308 308 308 308 308 308 308 308 307 307 307 307 307 307 307 307 308 309
274 274 274 273 273 273 272 272 272 273 273 273 274 275 276 277 278 279 279 280 280 281 282 282 282 283 283 283 283 284 284 285 286 288 289 290 291 292 293 295 296 297 298 299 299 299 299 299 299 299 299 299 299 300 301 302 303 304 304 305 305 306 306 306 307 307 307 307 307 308 307 307 307 307 307 307 307 306 306 306 306 306 307 307 308
275 275 275 275 274 274 274 274 274 274 274 274 275 276 277 278 278 278 279 279 280 280 280 281 281 281 282 283 284 285 286 287 288 290 291 292 293 294 296 297 298 299 299 299 299 299 298 298 298 298 299 300 301 302 303 304 304 305 305 305 306 306 306 306 306 306 306 306 307 307 307 306 306 306 306 306 305 305 305 305 305 305 306 307 308
278 277 276 275 275 274 274 274 274 274 274 274 275 275 276 277 277 277 277 278 278 279 280 280 282 283 284 286 288 289 289 290 291 292 293 294 295 296 297 298 298 298 298 298 297 297 297 297 298 299 301 302 303 304 304 305 305 305 305 305 305 305 305 305 305 305 306 306 306 306 306 306 306 305 305 304 304 304 304 304 304 305 306 307 308
285 283 282 280 279 278 278 277 276 276 276 276 276 277 277 278 279 279 279 280 281 282 284 285 287 289 290 291 292 292 292 293 294 294 295 295 296 297 297 297 297 296 296 295 295 296 297 299 300 302 303 303 304 304 304 304 304 304 304 304 304 304 304 304 305 305 306 306 306 305 305 305 305 304 304 304 303 303 303 304 304 305 306 307 308
288 288 287 287 286 285 285 284 283 283 282 282 282 283 284 284 285 285 286 287 288 289 290 291 293 293 294 294 294 294 294 294 294 295 295 295 295 295 295 295 294 294 294 295 297 299 300 301 302 303 303 304 304 304 303 303 303 303 303 303 303 303 304 304 305 305 305 305 304 304 304 304 304 304 303 303 303 303 303 304 305 306 307 307 308
287 287 288 288 288 288 288 288 288 288 287 287 288 288 289 290 290 290 291 291 292 293 293 294 294 294 294 293 293 293 293 293 293 294 294 294 293 293 292 292 293 294 296 298 300 301 302 302 303 303 303 302 302 302 301 301 301 302 302 302 303 303 304 304 304 304 304 304 304 304 304 304 303 303 303 303 303 303 304 305 306 306 307 307 307
284 285 285 286 286 287 287 288 288 288 288 288 289 289 290 290 290 291 291 292 292 292 293 293 293 292 292 291 291 291 292 292 292 292 292 291 291 291 292 294 296 298 299 301 302 302 302 301 301 301 301 300 300 300 300 300 301 301 301 302 302 303 303 303 303 303 303 303 303 303 303 302 302 302 302 303 303 303 304 305 306 306 307 307 307
281 282 282 283 284 284 285 286 286 287 287 288 288 288 289 289 289 290 290 290 291 291 291 291 290 290 290 290 291 291 291 291 291 290 290 291 293 294 296 298 299 300 300 301 301 300 299 299 299 299 299 298 299 299 299 300 300 301 301 301 301 302 302 301 301 301 301 301 302 302 302 302 302 303 303 303 304 304 305 306 307 307 308 308 308
280 280 280 281 282 282 283 284 284 285 286 286 287 287 287 288 288 289 289 289 290 290 290 290 290 290 290 290 291 290 290 290 291 292 294 296 297 298 299 299 299 299 299 299 298 297 297 297 297 297 297 297 298 298 299 299 300 300 300 300 300 300 300 300 300 301 301 301 301 302 302 303 303 303 304 304 304 305 306 307 307 308 308 308 309
280 280 281 281 281 281 282 282 283 283 284 285 285 286 286 287 287 288 288 288 288 288 289 289 289 289 290 291 291 292 292 293 295 296 297 297 297 297 297 297 297 297 297 296 296 295 295 295 295 296 296 297 298 298 299 299 299 299 299 299 299 300 300 300 300 301 301 301 302 303 303 303 303 303 303 304 304 305 306 307 307 308 308 308 308
280 280 281 281 281 281 282 282 282 283 283 284 284 285 285 285 286 286 286 287 287 288 288 289 290 290 291 292 293 294 295 295 296 296 296 296 296 296 296 296 296 295 295 295 294 294 294 295 295 296 297 297 298 298 298 298 298 298 299 299 299 300 300 300 301 301 302 302 303 303 303 303 303 303 303 304 305 306 306 307 307 308 308 308 308
280 280 280 281 281 281 282 282 282 282 282 283 283 283 284 284 285 286 286 287 288 289 290 291 291 292 293 293 294 294 294 294 294 294 294 294 294 294 295 295 295 294 294 293 294 294 295 296 296 297 297 298 298 297 298 298 298 299 299 299 300 300 300 301 301 302 302 303 303 303 303 303 303 303 304 304 305 306 306 307 307 307 308 308 308
279 280 280 280 281 281 281 282 282 283 283 283 284 284 285 286 287 288 288 289 290 291 291 292 292 293 293 293 293 293 293 293 294 294 294 293 294 294 294 294 294 293 293 293 294 295 296 296 297 297 297 297 297 297 298 298 299 299 300 300 300 301 301 301 302 302 303 303 303 303 303 303 303 303 304 305 305 306 306 307 307 307 307 308 308
280 281 281 282 282 283 283 284 285 285 286 286 287 287 288 288 289 289 290 290 290 290 291 291 292 292 292 292 292 292 292 292 292 292 292 292 293 293 293 293 293 293 294 294 295 295 296 296 296 296 296 297 298 298 299 299 299 300 300 300 301 301 301 302 302 303 303 303 303 303 302 302 303 303 304 305 305 306 306 307 307 307 307 308 308
282 283 283 284 285 285 286 286 287 287 288 288 288 289 289 289 289 289 289 289 289 289 290 290 290 290 290 290 290 290 291 291 291 291 291 291 291 292 292 292 293 294 294 295 295 295 295 296 296 297 297 298 298 299 299 299 300 300 300 301 301 302 302 302 303 303 303 303 303 302 302 302 303 304 304 305 305 306 306 306 307 307 307 307 308
283 284 284 285 285 286 286 287 287 287 287 287 287 287 287 287 287 287 287 288 288 288 288 289 289 289 289 289 289 290 290 290 290 290 290 290 291 291 292 293 293 294 294 294 295 295 296 296 297 297 298 298 298 299 299 300 300 300 301 301 301 302 302 302 302 302 302 302 302 301 301 302 303 304 304 305 305 305 306 306 306 307 307 307 307
283 284 284 285 285 285 285 286 286 286 286 286 286 286 286 286 285 285 286 286 287 287 287 288 288 288 288 289 289 289 289 289 289 290 290 291 291 292 293 293 293 294 294 295 295 296 297 297 297 297 298 298 299 299 300 300 300 300 301 301 301 302 302 302 302 302 301 301 301 301 302 303 303 304 304 304 305 305 305 306 306 306 307 307 307
281 282 283 283 283 283 283 283 284 284 284 284 284 284 284 284 284 284 285 285 286 286 287 287 287 287 287 287 287 288 288 289 290 290 291 291 292 292 293 293 293 294 295 295 296 296 296 297 297 298 298 299 299 300 300 300 300 300 301 301 301 301 301 301 301 301 301 301 301 301 302 303 303 303 304 304 304 305 305 305 306 306 306 306 307
279 280 280 280 281 281 281 281 281 281 281 282 282 282 282 282 283 283 284 284 285 285 286 286 286 286 286 287 287 288 289 290 290 291 291 292 292 292 293 294 294 295 295 295 296 296 296 297 298 299 299 299 299 299 299 300 300 300 300 300 300 300 300 300 300 300 300 301 301 302 302 302 303 303 303 304 304 304 305 305 305 305 306 306 306
278 278 278 278 279 279 279 280 280 280 280 281 281 281 281 282 282 282 283 283 284 284 284 285 285 286 287 288 288 289 290 290 290 291 291 292 292 293 294 294 294 295 295 295 296 297 297 298 298 299 299 298 299 299 299 299 299 299 299 299 300 300 300 300 300 300 300 301 301 301 302 302 302 302 303 303 303 304 304 304 305 305 305 305 306
276 277 277 277 278 278 279 279 279 279 280 280 280 281 281 281 281 281 282 282 283 283 284 285 286 287 287 288 289 289 289 290 290 291 291 292 293 293 294 294 294 295 295 296 297 298 298 298 298 298 297 298 298 298 298 298 298 299 299 299 299 299 299 299 300 300 300 300 301 301 301 301 302 302 302 302 303 303 303 303 304 304 305 305 305
275 276 276 276 277 277 278 278 278 279 279 279 279 280 280 281 281 282 282 283 284 284 285 286 287 287 288 288 288 289 289 290 290 291 292 292 293 293 294 294 295 296 296 297 297 297 297 297 296 296 297 297 297 298 298 298 298 298 298 298 298 298 299 299 299 299 300 300 300 301 301 301 301 301 301 302 302 302 303 303 303 304 304 305 305
275 275 275 276 276 277 277 278 278 278 279 279 280 280 281 281 282 283 283 284 285 285 286 286 286 287 287 287 288 288 289 290 290 291 292 293 293 294 294 295 295 296 296 296 296 295 295 295 295 296 296 296 297 297 297 297 298 298 298 298 298 298 299 299 299 299 299 300 300 300 300 300 300 300 301 301 301 302 302 302 303 303 304 304 304
274 275 275 276 276 277 277 278 278 279 279 280 280 281 281 282 282 283 283 284 284 284 285 285 285 285 286 287 288 289 290 291 291 292 292 293 293 294 294 294 294 294 294 294 294 294 294 295 295 295 296 296 296 297 297 297 297 297 297 297 298 298 298 298 298 299 299 299 299 299 300 300 300 300 300 300 301 302 302 302 303 303 304 304 304
273 274 274 275 275 276 276 277 277 278 279 279 280 280 281 281 282 282 282 282 283 283 283 284 285 286 287 288 289 290 290 291 291 291 291 292 292 292 292 293 293 293 293 293 293 293 294 294 295 295 295 296 296 296 296 296 296 296 297 297 298 298 298 298 298 298 298 298 299 299 299 299 299 299 299 300 301 301 302 302 302 303 303 303 304
272 273 273 274 274 275 275 276 277 277 278 278 279 279 279 280 280 281 281 282 283 284 285 286 286 287 288 289 289 289 289 290 290 290 290 290 291 291 291 291 291 291 292 292 293 293 294 294 295 295 295 296 296 295 295 295 296 296 297 297 297 297 297 297 297 298 298 298 298 298 298 298 299 299 299 300 300 301 301 301 302 302 303 303 303
271 272 272 273 273 274 274 275 275 276 276 277 278 278 279 280 281 282 283 283 284 285 286 286 286 287 287 287 288 288 288 289 289 289 289 289 290 290 290 290 291 291 292 293 293 294 294 294 295 295 295 295 295 295 295 296 296 296 296 296 297 297 297 297 297 297 297 297 298 298 298 298 299 299 299 300 300 300 301 301 301 301 302 302 302
271 272 272 273 273 274 274 275 276 276 277 278 279 280 281 281 282 283 284 284 284 285 285 285 285 285 286 286 286 287 287 288 288 288 289 289 289 290 290 291 292 292 293 293 293 294 294 294 294 294 294 294 294 295 295 295 295 296 296 296 296 296 296 296 296 297 297 297 297 298 298 298 298 299 299 299 299 300 300 300 301 301 301 301 301
271 271 272 272 273 274 275 276 276 277 278 279 279 280 280 281 282 282 282 283 283 283 284 284 284 284 285 285 286 287 287 288 288 289 289 290 290 291 291 292 292 293 293 293 294 294 294 294 294 294 294 294 295 295 295 295 295 295 295 295 295 295 295 296 296 296 297 297 297 297 298 298 298 298 298 298 299 299 299 300 300 300 300 300 300
271 271 272 272 273 274 275 276 276 277 277 278 278 279 279 280 280 281 281 281 282 282 283 283 284 285 285 286 287 287 288 288 289 290 290 291 291 292 292 293 293 293 293 294 294 294 294 294 294 294 294 294 294 295 295 295 295 295 295 295 294 294 295 295 296 296 297 297 297 297 297 298 298 298 298 298 298 299 299 299 299 299 299 299 299
273 273 273 274 274 275 276 276 277 277 278 278 279 279 279 280 280 280 281 282 282 283 284 284 285 286 286 287 288 289 289 290 290 291 291 292 292 292 293 293 293 293 294 293 293 293 294 294 294 294 294 294 294 294 294 294 294 294 294 294 294 294 295 295 296 296 296 297 297 296 297 297 297 297 298 298 298 298 298 298 298 298 298 298 297
Height
10663 10661 10659 10658 10656 10655 10654 10652 10651 10650 10649 10648 10645 10644 10643 10641 10640 10639 10637 10635 10633 10630 10628 10625 10622 10619 10616 10613 10610 10608 10605 10602 10598 10594 10591 10588 10584 10580 10577 10573 10570 10566 10562 10558 10555 10551 10546 10542 10538 10534 10530 10525 10520 10516 10510 10505 10499 10493 10489 10484 10479 10475 10471 10467 10463 10457 10452 10446 10441 10437 10431 10424 10418 10412 10406 10400 10394 10388 10380 10373 10367 10361 10353 10345 10336
10656 10654 10652 10651 10649 10648 10646 10645 10643 10642 10642 10640 10637 10636 10635 10634 10632 10631 10628 10626 10624 10622 10619 10617 10614 10611 10608 10604 10602 10599 10596 10593 10590 10586 10583 10579 10575 10571 10567 10564 10561 10556 10552 10549 10545 10541 10536 10532 10528 10524 10520 10515 10510 10505 10500 10493 10488 10482 10477 10473 10468 10464 10459 10455 10450 10445 10439 10433 10428 10423 10418 10410 10402 10395 10391 10386 10379 10373 10367 10360 10353 10346 10338 10329 10320
10648 10647 10645 10643 10642 10641 10639 10637 10635 10634 10634 10632 10630 10628 10627 10625 10623 10621 10619 10617 10615 10612 10610 10609 10606 10603 10599 10596 10593 10590 10587 10584 10581 10577 10574 10570 10565 10561 10558 10554 10551 10547 10543 10539 10535 10530 10526 10522 10518 10514 10510 10505 10500 10495 10489 10482 10476 10471 10466 10461 10457 10453 10448 10443 10437 10432 10426 10420 10413 10408 10404 10396 10387 10379 10374 10368 10362 10357 10351 10345 10339 10332 10323 10314 10305
10640 10639 10637 10636 10635 10634 10633 10630 10628 10627 10626 10624 10622 10620 10618 10616 10614 10612 10611 10608 10606 10603 10601 10599 10597 10595 10591 10588 10585 10582 10578 10574 10571 10568 10564 10560 10556 10552 10548 10544 10540 10536 10532 10528 10524 10520 10516 10512 10508 10504 10499 10494 10489 10484 10477 10470 10465 10460 10455 10450 10446 10442 10437 10430 10424 10418 10412 10406 10399 10393 10387 10381 10373 10366 10359 10351 10345 10339 10334 10328 10322 10315 10307 10298 10289
10632 10631 10629 10628 10627 10625 10624 10623 10621 10619 10618 10616 10613 10611 10610 10607 10605 10604 10602 10600 10597 10595 10593 10590 10588 10586 10583 10579 10576 10572 10568 10565 10562 10559 10554 10550 10546 10541 10538 10534 10530 10526 10521 10517 10513 10509 10505 10501 10497 10493 10488 10483 10479 10472 10465 10458 10453 10448 10443 10439 10434 10430 10425 10418 10411 10404 10398 10393 10387 10379 10371 10365 10358 10351 10343 10335 10328 10322 10316 10310 10304 10297 10289 10282 10273
10623 10622 10622 10620 10618 10616 10615 10615 10613 10612 10610 10607 10604 10602 10601 10598 10596 10595 10593 10591 10589 10586 10584 10581 10579 10577 10574 10570 10567 10563 10559 10555 10552 10549 10544 10540 10535 10531 10527 10523 10519 10515 10510 10506 10502 10499 10495 10491 10486 10482 10477 10472 10467 10460 10452 10446 10441 10435 10431 10427 10422 10417 10411 10405 10398 10391 10384 10378 10372 10364 10356 10350 10344 10336 10327 10319 10313 10305 10297 10292 10287 10279 10271 10266 10258
10615 10615 10613 10612 10609 10606 10606 10606 10605 10603 10601 10598 10595 10593 10592 10589 10587 10586 10584 10582 10579 10577 10575 10572 10570 10567 10564 10561 10558 10554 10549 10545 10542 10539 10534 10530 10525 10521 10516 10512 10508 10504 10500 10495 10491 10488 10484 10479 10475 10470 10465 10461 10455 10446 10439 10433 10428 10422 10418 10413 10408 10403 10397 10390 10383 10376 10369 10362 10355 10348 10341 10335 10329 10320 10311 10304 10297 10289 10281 10277 10273 10264 10254 10249 10243
10608 10606 10604 10602 10599 10597 10597 10596 10595 10593 10591 10589 10586 10584 10583 10580 10578 10577 10574 10572 10569 10567 10565 10562 10560 10557 10554 10551 10548 10544 10540 10536 10532 10528 10524 10520 10515 10510 10505 10501 10497 10493 10489 10485 10481 10477 10472 10468 10463 10458 10454 10449 10441 10433 10426 10421 10416 10410 10405 10400 10395 10389 10383 10375 10368 10361 10354 10347 10340 10332 10326 10322 10314 10304 10296 10289 10282 10274 10266 10262 10259 10250 10240 10234 10229
10599 10597 10594 10591 10589 10588 10587 10586 10584 10583 10582 10580 10578 10576 10574 10571 10569 10567 10565 10562 10559 10557 10555 10553 10551 10547 10544 10542 10538 10534 10530 10526 10522 10518 10514 10509 10504 10499 10495 10490 10486 10482 10478 10474 10469 10465 10461 10456 10451 10447 10442 10436 10428 10421 10414 10409 10404 10399 10393 10387 10382 10376 10369 10361 10354 10346 10340 10334 10327 10319 10313 10308 10299 10289 10282 10275 10266 10260 10254 10247 10242 10236 10227 10223 10218
10590 10587 10585 10582 10580 10578 10576 10574 10573 10572 10571 10569 10568 10567 10565 10562 10560 10558 10555 10552 10550 10548 10546 10544 10541 10537 10535 10532 10529 10525 10520 10516 10512 10508 10503 10498 10493 10488 10484 10479 10475 10471 10466 10462 10458 10454 10449 10444 10440 10435 10429 10423 10416 10410 10403 10398 10393 10387 10381 10376 10369 10362 10354 10347 10339 10332 10325 10320 10314 10306 10300 10294 10285 10274 10266 10260 10251 10245 10240 10232 10226 10221 10214 10209 10206
10578 10577 10575 10573 10570 10568 10566 10563 10561 10560 10559 10557 10556 10556 10554 10551 10550 10547 10545 10542 10540 10538 10536 10533 10530 10527 10525 10522 10518 10514 10510 10505 10501 10497 10492 10487 10482 10477 10472 10468 10464 10459 10455 10450 10446 10442 10437 10432 10427 10422 10416 10410 10405 10399 10393 10387 10382 10376 10370 10364 10357 10349 10341 10332 10325 10318 10310 10305 10301 10295 10286 10279 10271 10260 10249 10243 10238 10231 10224 10218 10211 10205 10199 10192 10187
10567 10566 10564 10562 10561 10558 10556 10553 10550 10548 10547 10545 10545 10544 10542 10539 10538 10536 10534 10532 10530 10528 10525 10522 10519 10517 10514 10511 10508 10504 10499 10494 10491 10486 10481 10476 10471 10465 10460 10456 10452 10448 10443 10439 10435 10431 10426 10420 10415 10409 10404 10398 10393 10387 10381 10375 10369 10364 10359 10352 10345 10336 10327 10319 10312 10304 10297 10292 10290 10283 10272 10262 10257 10249 10235 10227 10224 10217 10209 10203 10195 10187 10182 10176 10170
10557 10554 10553 10552 10550 10548 10546 10543 10540 10538 10536 10534 10533 10532 10530 10528 10526 10525 10523 10521 10519 10517 10514 10511 10509 10506 10503 10500 10497 10492 10487 10484 10480 10475 10470 10465 10460 10455 10450 10445 10440 10436 10432 10428 10424 10419 10414 10408 10402 10396 10390 10386 10380 10373 10367 10362 10357 10352 10347 10340 10332 10323 10314 10306 10298 10289 10284 10280 10276 10270 10258 10245 10241 10237 10224 10212 10208 10203 10194 10187 10179 10171 10166 10161 10157
10545 10543 10542 10540 10539 10537 10535 10533 10530 10528 10525 10523 10521 10520 10518 10517 10515 10514 10512 10510 10508 10505 10503 10500 10498 10495 10492 10489 10485 10481 10476 10473 10470 10465 10458 10454 10449 10444 10439 10434 10429 10425 10421 10416 10412 10406 10401 10395 10389 10383 10377 10372 10366 10359 10354 10349 10345 10340 10333 10326 10319 10311 10303 10293 10282 10274 10270 10265 10259 10254 10246 10234 10226 10222 10212 10199 10189 10183 10176 10171 10165 10157 10151 10147 10145
10533 10532 10530 10529 10527 10526 10524 10521 10520 10517 10514 10512 10511 10509 10507 10505 10504 10502 10501 10498 10496 10493 10491 10489 10486 10483 10480 10477 10473 10469 10464 10461 10460 10455 10447 10442 10438 10433 10428 10422 10418 10414 10409 10405 10400 10394 10388 10382 10376 10370 10365 10358 10352 10345 10340 10335 10331 10326 10319 10312 10305 10299 10290 10278 10267 10262 10257 10250 10242 10237 10231 10222 10211 10204 10195 10183 10173 10165 10158 10154 10150 10141 10134 10132 10131
10520 10519 10518 10517 10515 10514 10512 10510 10508 10506 10504 10501 10500 10498 10496 10494 10492 10490 10488 10487 10484 10482 10479 10477 10474 10472 10469 10465 10461 10457 10452 10449 10448 10445 10438 10431 10427 10422 10416 10411 10407 10402 10398 10394 10389 10382 10376 10371 10364 10358 10352 10345 10338 10332 10326 10321 10317 10311 10305 10298 10291 10284 10275 10262 10253 10249 10244 10237 10230 10223 10216 10208 10197 10188 10179 10168 10159 10152 10144 10141 10136 10126 10119 10118 10117
10506 10506 10505 10504 10503 10501 10500 10498 10497 10495 10492 10490 10488 10486 10485 10483 10481 10478 10476 10475 10473 10470 10468 10465 10463 10460 10457 10453 10449 10445 10441 10437 10435 10432 10427 10421 10416 10411 10405 10400 10395 10390 10386 10381 10376 10370 10364 10358 10351 10344 10338 10332 10324 10318 10312 10307 10303 10296 10289 10283 10276 10268 10259 10249 10241 10236 10229 10222 10216 10208 10201 10193 10184 10177 10169 10158 10148 10140 10132 10127 10123 10114 10106 10104 10102
10493 10493 10492 10491 10490 10489 10487 10486 10484 10482 10480 10478 10477 10475 10473 10471 10469 10467 10465 10463 10461 10459 10456 10454 10451 10448 10445 10442 10439 10433 10429 10426 10422 10418 10414 10409 10404 10400 10394 10388 10383 10378 10373 10368 10363 10357 10351 10344 10337 10331 10325 10319 10312 10305 10298 10293 10288 10281 10273 10268 10262 10253 10244 10236 10230 10223 10214 10207 10200 10192 10185 10178 10170 10163 10155 10144 10135 10125 10115 10109 10103 10095 10088 10084 10080
10481 10480 10479 10478 10477 10476 10475 10473 10472 10470 10468 10466 10465 10463 10462 10460 10458 10455 10453 10451 10449 10446 10444 10442 10439 10436 10434 10431 10427 10422 10418 10414 10410 10405 10401 10396 10391 10387 10382 10376 10371 10365 10360 10354 10349 10343 10337 10331 10325 10318 10312 10306 10299 10292 10285 10279 10273 10266 10258 10252 10247 10239 10230 10223 10216 10209 10202 10195 10188 10181 10174 10167 10159 10151 10143 10132 10122 10111 10100 10092 10084 10076 10070 10065 10059
10468 10467 10466 10465 10464 10464 10463 10461 10460 10458 10456 10455 10453 10451 10450 10448 10446 10443 10441 10438 10436 10434 10432 10430 10427 10424 10421 10419 10415 10411 10406 10402 10397 10392 10388 10383 10377 10373 10367 10362 10357 10351 10346 10341 10335 10329 10323 10317 10311 10304 10298 10293 10286 10279 10271 10264 10258 10252 10244 10237 10231 10224 10217 10209 10201 10195 10190 10184 10177 10171 10164 10156 10149 10141 10132 10123 10112 10101 10091 10082 10073 10064 10057 10051 10046
10456 10455 10454 10453 10452 10451 10450 10449 10448 10446 10445 10443 10442 10439 10438 10436 10433 10431 10429 10426 10425 10423 10420 10418 10415 10412 10409 10406 10403 10399 10394 10390 10384 10379 10374 10369 10363 10358 10353 10348 10342 10337 10332 10327 10321 10315 10309 10304 10297 10291 10284 10278 10271 10264 10257 10250 10243 10237 10229 10222 10215 10209 10202 10196 10189 10182 10177 10171 10164 10158 10151 10144 10137 10129 10120 10111 10101 10091 10082 10073 10064 10056 10049 10042 10035
10444 10443 10442 10441 10440 10439 10438 10436 10435 10434 10432 10431 10430 10428 10426 10424 10421 10419 10417 10415 10413 10411 10408 10406 10403 10399 10396 10392 10388 10385 10380 10376 10371 10365 10360 10355 10349 10344 10339 10334 10329 10324 10319 10314 10308 10302 10297 10291 10284 10277 10270 10263 10256 10249 10242 10235 10228 10221 10214 10207 10201 10194 10187 10182 10176 10169 10162 10156 10150 10144 10137 10130 10123 10116 10109 10100 10091 10082 10073 10065 10055 10046 10039 10033 10025
10431 10430 10429 10429 10428 10426 10425 10424 10422 10421 10420 10418 10417 10415 10413 10411 10409 10407 10405 10402 10400 10398 10395 10392 10389 10385 10381 10377 10373 10369 10364 10360 10356 10351 10346 10341 10335 10331 10326 10321 10316 10311 10306 10300 10295 10289 10283 10276 10269 10262 10255 10248 10241 10234 10227 10220 10213 10206 10199 10193 10186 10179 10172 10167 10160 10153 10147 10141 10134 10128 10122 10115 10108 10101 10095 10087 10079 10071 10063 10056 10048 10039 10031 10025 10017
10415 10415 10414 10413 10413 10412 10411 10409 10408 10407 10406 10404 10402 10400 10398 10397 10395 10392 10390 10388 10386 10383 10380 10377 10373 10369 10365 10361 10357 10353 10348 10344 10340 10336 10331 10327 10322 10317 10312 10307 10302 10297 10292 10287 10281 10275 10268 10261 10253 10247 10240 10234 10227 10220 10213 10206 10199 10192 10185 10178 10171 10164 10157 10151 10144 10138 10131 10125 10119 10112 10106 10099 10092 10085 10078 10071 10063 10055 10048 10042 10036 10029 10021 10015 10008
10400 10399 10398 10398 10397 10396 10395 10394 10392 10391 10389 10387 10386 10384 10382 10381 10378 10376 10374 10371 10369 10367 10364 10360 10357 10353 10349 10345 10341 10337 10333 10329 10325 10321 10317 10312 10308 10303 10298 10293 10288 10283 10278 10272 10265 10258 10252 10245 10239 10232 10226 10220 10213 10207 10200 10193 10186 10179 10172 10164 10157 10150 10143 10136 10129 10122 10116 10110 10104 10098 10091 10084 10076 10069 10061 10053 10045 10038 10031 10026 10021 10015 10008 10002 9996
10387 10386 10384 10383 10381 10380 10379 10378 10377 10376 10374 10372 10370 10368 10367 10365 10363 10360 10358 10355 10353 10350 10348 10345 10342 10338 10334 10331 10327 10323 10319 10315 10311 10307 10303 10298 10294 10289 10284 10279 10273 10267 10261 10255 10249 10243 10237 10231 10224 10219 10213 10207 10200 10194 10188 10180 10173 10166 10158 10151 10143 10136 10129 10121 10114 10107 10101 10095 10089 10082 10076 10069 10061 10054 10046 10038 10030 10022 10016 10011 10007 10002 9995 9990 9985
10374 10373 10371 10369 10367 10366 10365 10363 10362 10361 10359 10358 10357 10354 10352 10350 10348 10346 10343 10341 10338 10336 10333 10330 10327 10323 10320 10316 10312 10309 10305 10301 10297 10293 10289 10285 10280 10274 10269 10262 10256 10251 10245 10240 10234 10229 10223 10217 10211 10206 10200 10194 10188 10181 10174 10167 10160 10152 10145 10137 10130 10123 10116 10108 10101 10094 10087 10081 10075 10068 10062 10055 10047 10039 10031 10023 10016 10009 10003 9998 9994 9989 9982 9975 9970
10361 10359 10358 10356 10354 10353 10351 10350 10348 10346 10344 10343 10341 10339 10337 10335 10333 10331 10328 10326 10324 10321 10317 10314 10311 10308 10304 10301 10297 10294 10290 10286 10282 10278 10273 10268 10262 10257 10251 10245 10239 10235 10231 10226 10221 10216 10210 10204 10199 10193 10187 10181 10174 10167 10160 10153 10146 10139 10132 10124 10117 10110 10103 10096 10089 10081 10074 10068 10061 10055 10048 10040 10031 10022 10014 10006 9999 9992 9987 9982 9978 9973 9966 9959 9952
10346 10345 10344 10343 10341 10339 10338 10336 10334 10331 10329 10327 10325 10323 10321 10319 10317 10314 10312 10309 10307 10304 10301 10298 10294 10291 10288 10284 10281 10278 10273 10269 10265 10260 10254 10249 10244 10239 10234 10229 10225 10221 10217 10213 10208 10203 10197 10191 10186 10180 10174 10167 10160 10153 10146 10139 10132 10125 10119 10112 10104 10097 10090 10083 10076 10068 10060 10053 10046 10039 10031 10023 10015 10007 9998 9990 9984 9977 9972 9966 9961 9956 9950 9944 9937
10329 10328 10328 10327 10326 10325 10323 10321 10319 10316 10314 10312 10310 10307 10305 10303 10300 10298 10295 10293 10290 10287 10285 10281 10278 10275 10272 10268 10264 10260 10255 10251 10247 10243 10238 10234 10230 10225 10220 10216 10212 10208 10203 10199 10194 10188 10183 10177 10172 10166 10159 10152 10146 10138 10131 10124 10118 10111 10105 10099 10091 10084 10076 10069 10061 10053 10045 10037 10030 10023 10015 10007 10000 9993 9985 9978 9972 9966 9960 9954 9947 9941 9935 9930 9924
10312 10312 10311 10309 10308 10308 10306 10304 10303 10301 10299 10297 10294 10292 10290 10287 10285 10283 10280 10278 10275 10272 10269 10265 10261 10258 10255 10250 10246 10242 10238 10235 10231 10228 10224 10220 10216 10211 10207 10202 10198 10194 10189 10184 10179 10174 10168 10162 10156 10150 10143 10137 10131 10124 10116 10110 10103 10097 10091 10084 10076 10069 10061 10053 10045 10038 10030 10023 10015 10008 10000 9992 9985 9978 9971 9965 9960 9954 9948 9942 9934 9928 9922 9916 9910
10296 10295 10294 10293 10292 10291 10289 10288 10287 10285 10283 10281 10279 10277 10275 10273 10270 10267 10265 10262 10258 10255 10251 10248 10244 10241 10237 10234 10230 10227 10223 10221 10217 10214 10210 10205 10200 10196 10192 10187 10183 10179 10174 10170 10164 10158 10152 10145 10139 10133 10126 10121 10115 10109 10102 10095 10087 10081 10075 10068 10060 10053 10045 10037 10029 10022 10015 10009 10001 9993 9985 9977 9970 9963 9957 9951 9946 9940 9934 9929 9922 9915 9909 9903 9897
10279 10279 10277 10276 10275 10274 10272 10271 10269 10268 10266 10264 10262 10260 10258 10255 10253 10250 10247 10244 10241 10238 10234 10232 10228 10225 10222 10218 10215 10211 10208 10205 10202 10198 10194 10189 10185 10180 10176 10172 10168 10163 10158 10153 10148 10141 10135 10129 10123 10117 10111 10105 10100 10093 10086 10079 10072 10064 10058 10051 10044 10037 10029 10021 10014 10007 10000 9994 9987 9978 9970 9962 9955 9949 9943 9937 9932 9926 9920 9915 9909 9902 9896 9890 9884
10262 10261 10259 10258 10257 10256 10255 10253 10251 10249 10247 10245 10243 10241 10239 10237 10235 10233 10230 10228 10225 10222 10219 10216 10213 10210 10207 10203 10199 10196 10192 10189 10186 10182 10178 10173 10169 10165 10161 10157 10152 10147 10141 10136 10130 10125 10119 10113 10107 10101 10095 10089 10083 10077 10070 10063 10056 10048 10041 10034 10028 10021 10014 10006 9999 9991 9985 9979 9972 9964 9956 9948 9941 9936 9930 9924 9918 9912 9907 9901 9895 9890 9884 9878 9872
10244 10243 10241 10239 10238 10238 10236 10235 10233 10231 10229 10228 10226 10224 10223 10221 10219 10216 10214 10212 10209 10206 10204 10201 10198 10195 10192 10188 10184 10180 10177 10174 10170 10166 10161 10157 10153 10149 10145 10141 10135 10129 10124 10118 10113 10108 10103 10097 10091 10085 10079 10072 10066 10060 10053 10047 10040 10032 10025 10018 10011 10005 9999 9992 9984 9977 9970 9964 9957 9950 9941 9934 9928 9923 9916 9910 9904 9899 9894 9888 9882 9877 9872 9866 9860
10225 10225 10224 10223 10221 10220 10219 10218 10217 10215 10214 10213 10211 10209 10207 10206 10204 10201 10199 10196 10194 10191 10189 10186 10184 10180 10176 10172 10168 10164 10161 10158 10153 10149 10145 10142 10138 10134 10129 10124 10118 10113 10107 10102 10096 10091 10086 10080 10074 10068 10062 10056 10050 10043 10037 10030 10023 10016 10009 10002 9996 9990 9984 9977 9970 9963 9956 9950 9943 9935 9928 9921 9915 9909 9903 9897 9891 9886 9881 9876 9870 9865 9859 9854 9849
10208 10208 10207 10207 10205 10204 10203 10202 10201 10200 10199 10197 10196 10195 10193 10191 10189 10186 10184 10181 10179 10177 10174 10171 10168 10164 10160 10156 10152 10148 10145 10141 10136 10132 10128 10125 10120 10116 10112 10107 10102 10096 10091 10085 10079 10073 10068 10062 10057 10051 10045 10039 10032 10026 10019 10013 10006 10000 9994 9988 9981 9975 9969 9963 9956 9950 9943 9935 9928 9920 9914 9908 9902 9896 9890 9884 9879 9873 9868 9863 9858 9853 9848 9843 9837
10195 10194 10193 10192 10191 10190 10188 10188 10187 10186 10184 10183 10181 10180 10178 10176 10174 10172 10169 10166 10164 10161 10158 10155 10152 10148 10144 10140 10135 10132 10129 10124 10119 10115 10111 10107 10103 10099 10094 10090 10085 10079 10074 10068 10062 10057 10051 10046 10040 10034 10028 10021 10015 10009 10003 9996 9990 9984 9979 9973 9967 9961 9955 9949 9942 9935 9929 9922 9914 9906 9900 9895 9889 9883 9877 9871 9866 9861 9855 9851 9846 9841 9836 9831 9826
10182 10181 10179 10178 10177 10176 10175 10174 10173 10172 10171 10169 10167 10166 10164 10161 10159 10157 10154 10151 10148 10145 10142 10139 10135 10132 10128 10123 10119 10115 10111 10107 10102 10098 10094 10090 10086 10082 10077 10072 10067 10062 10056 10051 10046 10041 10035 10029 10023 10017 10011 10004 9998 9993 9987 9981 9975 9969 9963 9957 9952 9946 9940 9934 9927 9920 9914 9908 9901 9894 9887 9881 9876 9871 9865 9860 9854 9849 9844 9839 9835 9830 9825 9820 9815
10168 10167 10165 10164 10163 10162 10161 10160 10159 10157 10156 10154 10153 10151 10149 10146 10144 10141 10138 10135 10132 10129 10126 10122 10118 10114 10110 10106 10101 10097 10093 10089 10085 10081 10077 10073 10068 10064 10059 10054 10049 10044 10039 10034 10029 10024 10018 10013 10007 10001 9995 9989 9983 9978 9972 9966 9960 9954 9947 9942 9936 9931 9925 9919 9912 9906 9900 9894 9888 9882 9875 9868 9863 9858 9853 9848 9843 9838 9832 9827 9823 9819 9815 9809 9804
10153 10152 10151 10150 10148 10147 10146 10145 10143 10142 10141 10139 10137 10135 10133 10130 10128 10125 10122 10119 10116 10113 10109 10105 10101 10096 10092 10088 10084 10080 10077 10073 10068 10064 10060 10056 10051 10047 10042 10037 10032 10027 10022 10017 10012 10007 10002 9997 9991 9986 9980 9974 9968 9963 9957 9951 9945 9938 9932 9926 9920 9915 9909 9904 9898 9892 9886 9880 9875 9869 9863 9856 9850 9845 9841 9837 9832 9827 9822 9816 9812 9808 9804 9800 9794
10138 10137 10135 10134 10133 10132 10131 10129 10128 10126 10125 10123 10121 10119 10116 10114 10111 10108 10105 10102 10098 10095 10091 10087 10083 10079 10075 10071 10068 10064 10060 10056 10052 10047 10043 10039 10034 10030 10025 10020 10014 10009 10004 10000 9995 9990 9985 9980 9975 9970 9965 9959 9953 9948 9941 9935 9929 9923 9916 9910 9905 9899 9894 9889 9883 9877 9872 9867 9862 9857 9851 9844 9838 9832 9828 9825 9821 9817 9812 9806 9801 9797 9794 9789 9784
10123 10121 10120 10119 10118 10116 10115 10113 10111 10109 10107 10106 10103 10101 10098 10096 10093 10090 10087 10084 10080 10077 10073 10069 10066 10062 10059 10055 10052 10048 10044 10040 10035 10031 10026 10022 10017 10013 10007 10002 9997 9993 9988 9984 9979 9974 9969 9964 9959 9954 9949 9943 9938 9932 9926 9919 9913 9907 9900 9894 9889 9884 9879 9875 9869 9863 9858 9853 9848 9844 9839 9833 9826 9820 9816 9813 9810 9806 9801 9796 9791 9787 9783 9779 9775
10107 10105 10104 10103 10102 10100 10098 10096 10094 10092 10090 10088 10085 10083 10081 10078 10075 10072 10070 10067 10063 10060 10057 10053 10050 10047 10043 10039 10035 10031 10027 10023 10018 10014 10009 10005 10000 9996 9991 9986 9981 9977 9973 9968 9963 9957 9952 9948 9943 9938 9933 9927 9922 9916 9910 9903 9897 9890 9884 9878 9873 9868 9865 9860 9855 9850 9844 9840 9835 9831 9826 9821 9815 9809 9805 9802 9799 9796 9791 9786 9781 9777 9773 9770 9765
10091 10090 10089 10087 10085 10083 10081 10079 10077 10075 10073 10071 10068 10066 10064 10061 10058 10056 10053 10051 10048 10045 10041 10037 10034 10030 10026 10022 10018 10014 10010 10006 10001 9997 9993 9989 9985 9981 9976 9971 9966 9961 9957 9952 9946 9941 9936 9931 9926 9921 9916 9910 9905 9899 9893 9887 9881 9875 9869 9864 9858 9853 9849 9845 9841 9836 9831 9826 9822 9818 9814 9809 9804 9799 9794 9791 9788 9785 9781 9777 9772 9768 9764 9760 9756
10076 10074 10073 10071 10069 10068 10066 10064 10062 10059 10057 10055 10053 10050 10048 10045 10043 10040 10037 10034 10031 10028 10024 10020 10016 10013 10009 10005 10001 9997 9993 9989 9985 9981 9978 9973 9969 9965 9960 9955 9950 9945 9941 9936 9930 9925 9920 9915 9909 9904 9898 9893 9888 9882 9876 9871 9866 9861 9855 9850 9844 9839 9834 9830 9826 9823 9819 9813 9809 9805 9802 9798 9793 9788 9784 9780 9777 9774 9771 9767 9763 9759 9755 9751 9747
10061 10059 10058 10056 10054 10052 10050 10048 10046 10044 10042 10040 10037 10034 10032 10029 10026 10023 10020 10017 10014 10011 10007 10004 10000 9996 9992 9988 9984 9980 9977 9973 9969 9965 9961 9957 9953 9949 9944 9939 9934 9929 9924 9919 9914 9909 9904 9898 9893 9887 9882 9876 9871 9866 9860 9855 9851 9846 9841 9836 9831 9825 9820 9815 9812 9809 9805 9801 9797 9793 9789 9786 9782 9777 9773 9770 9766 9763 9761 9757 9754 9750 9746 9742 9738
10045 10044 10042 10041 10039 10037 10035 10033 10031 10028 10026 10023 10020 10018 10015 10012 10009 10006 10003 10000 9997 9994 9991 9988 9984 9980 9976 9972 9968 9964 9961 9957 9953 9948 9944 9940 9936 9931 9927 9922 9917 9912 9907 9902 9897 9892 9887 9882 9876 9871 9865 9859 9854 9850 9845 9841 9836 9832 9828 9823 9818 9812 9807 9802 9798 9795 9792 9789 9785 9781 9777 9774 9771 9766 9762 9759 9756 9753 9750 9748 9744 9741 9738 9734 9730
10030 10028 10027 10025 10023 10021 10019 10017 10015 10012 10010 10007 10005 10002 10000 9997 9994 9991 9988 9985 9982 9979 9975 9971 9968 9964 9960 9956 9952 9948 9944 9940 9935 9931 9926 9921 9917 9913 9909 9905 9900 9895 9890 9885 9880 9875 9870 9865 9859 9854 9849 9843 9839 9834 9829 9825 9822 9818 9814 9810 9804 9799 9795 9791 9786 9783 9780 9776 9772 9768 9765 9762 9759 9755 9752 9748 9745 9742 9740 9738 9735 9732 9729 9725 9721
10015 10013 10012 10010 10008 10006 10004 10002 10000 9998 9995 9993 9990 9988 9985 9982 9979 9976 9973 9969 9966 9963 9959 9955 9952 9948 9944 9940 9935 9931 9927 9922 9917 9913 9908 9903 9899 9895 9891 9887 9882 9878 9873 9868 9863 9858 9854 9849 9844 9839 9833 9828 9823 9819 9814 9810 9807 9803 9800 9795 9791 9787 9783 9780 9775 9771 9768 9764 9760 9756 9753 9750 9747 9744 9740 9737 9735 9732 9730 9728 9725 9722 9720 9717 9713
9999 9998 9996 9994 9993 9991 9989 9987 9985 9983 9980 9977 9975 9972 9969 9966 9962 9959 9956 9953 9950 9946 9943 9939 9935 9931 9927 9922 9918 9913 9909 9904 9899 9895 9890 9886 9881 9877 9873 9869 9865 9861 9856 9851 9847 9842 9838 9833 9829 9824 9819 9814 9809 9804 9800 9796 9793 9789 9785 9781 9777 9774 9772 9768 9764 9760 9756 9752 9748 9744 9741 9739 9736 9732 9729 9726 9724 9721 9719 9717 9715 9713 9710 9708 9705